Regional Weather Roundup
Issued by NWS

Home | Current Version | Previous Version | Text Only | Print | Product List | Glossary On
Versions: 1 2 3 4 5 6 7 8 9 10 11 12 13 14 15 16 17 18 19 20 21 22 23 24 25 26 27 28 29 30 31 32 33 34 35 36 37 38 39 40 41 42 43 44 45 46 47 48 49 50
000
ASHW40 PHFO 050630
RWRHI

WEATHER ROUNDUP FOR HAWAII
NATIONAL WEATHER SERVICE HONOLULU HI
800 PM HST WED MAR 04 2015

THIS IS AN AUTOMATED REPORT THAT HAS NOT BEEN QUALITY CONTROLLED.

NOTE..."FAIR" INDICATES FEW OR NO CLOUDS BELOW 12,000 FEET WITH NO
SIGNIFICANT WEATHER AND/OR OBSTRUCTIONS TO VISIBILITY.

* - THESE SITES REPORT LIMITED FIELDS

HIZ001>004-050700-
KAUAI-NIIHAU-

CITY           SKY/WX    TMP DP  RH WIND       PRES   REMARKS
LIHUE APT      LGT RAIN  70  63  78 N12       30.03R
PORT ALLEN*      N/A     72 N/A N/A NE14G23     N/A
POIPU*         NOT AVBL
PRINCEVILLE*     N/A     70 N/A N/A MISG        N/A
KOKOLE POINT*  NOT AVBL
MOLOAA DAIRY*  NOT AVBL
WAIMEA HTS*    NOT AVBL
PUU OPAE*      NOT AVBL
PUU LUA*       NOT AVBL
MAKAHA RIDGE*  NOT AVBL
$$

HIZ005>011-050700-
OAHU-

CITY           SKY/WX    TMP DP  RH WIND       PRES   REMARKS
HONOLULU       CLOUDY    71  64  78 NE8       29.99R
KALAELOA       LGT RAIN  68  64  87 VRB5      30.01R
KANEOHE MCB    CLOUDY    71  66  84 NE9       29.97S
WHEELER FIELD  FAIR      66  64  94 NW8       30.00R
BELLOWS*         N/A    N/A N/A N/A VRB12G23    N/A
KAHUKU*          N/A    N/A N/A N/A N3G10       N/A
WHEELER*       NOT AVBL
WAIANAE HARBOR NOT AVBL
DILLINGHAM*      N/A     68  64  88 MISG        N/A
KAHUKU TRN*      N/A     66  63  88 NE5G20      N/A
KAWAILOA*        N/A     64  63  94 N9G18       N/A
KII*             N/A     72  64  78 N14G26      N/A
MAKUA RANGE*     N/A     70  63  78 E12G26      N/A
OAHU FOREST NW NOT AVBL
SCHOFIELD BRK*   N/A     64  63  94 MISG        N/A
SCHOFIELD S*   NOT AVBL
WAIANAE VLY*   NOT AVBL
KUAOKALA*      NOT AVBL
HONOULIUULI*   NOT AVBL
MOKUOLOE IS*   NOT AVBL
PALEHUA*       NOT AVBL
WAIAWA PHB*    NOT AVBL
$$

HIZ012>013-050700-
MOLOKAI-

CITY           SKY/WX    TMP DP  RH WIND       PRES   REMARKS
MOLOKAI AIRPT  PTCLDY    66  60  81 SW5       29.95S
KALAUPAPA      NOT AVBL
MAKAPULAPAI*   NOT AVBL
MOLOKAI 1*     NOT AVBL
PUU ALII*        N/A     51  49  93 E2G10       N/A
$$

HIZ016-050700-
KAHOOLAWE-

CITY           SKY/WX    TMP DP  RH WIND       PRES   REMARKS
KAHOOLAWE*     NOT AVBL
HAKIOAWA*        N/A     65  61  88 MISG      30.39
HONOKANAIA*      N/A     69  62  77 N13G22    29.98S
KANELOA*         N/A     72  63  73 MISG      29.18R
KEALIALALO*    NOT AVBL
LUA MAKIKA*    NOT AVBL
$$

HIZ014>015-050700-
LANAI-

CITY           SKY/WX    TMP DP  RH WIND       PRES   REMARKS
LANAI CITY     FAIR      66  53  63 SE16      29.98F
LANAI 1*       NOT AVBL
$$

HIZ017>028-050700-
MAUI-

CITY           SKY/WX    TMP DP  RH WIND       PRES   REMARKS
KAHULUI        LGT RAIN  69  65  86 SE7       29.98S
KAPALUA-W MAUI NOT AVBL
HANA AIRPORT   LGT RAIN  66  57  72 CALM      30.01R
HANA*            N/A     70 N/A N/A W6G12       N/A
HALEAKALA SUMM   N/A     32  32 100 NE21        N/A  WCI  20
MAALAEA BAY*   NOT AVBL
HALEAKALA*     NOT AVBL
KAUPO GAP*     NOT AVBL
KULA 1*          N/A     46  43  87 E6          N/A
$$

HIZ023>026-050700-
BIG ISLAND OF HAWAII COAST AND LOWER SLOPES-

CITY           SKY/WX    TMP DP  RH WIND       PRES   REMARKS
KAILUA KONA    CLOUDY    73  57  57 N20       29.92S
HILO           CLOUDY    71  58  63 NW9       29.99R
HONOKAA*       NOT AVBL
KAWAIHAE MWT*    N/A     77 N/A N/A VRB6G17     N/A
KAWAIHAE*        N/A     77 N/A N/A N8G15       N/A
SOUTH POINT*     N/A     66 N/A N/A NW5         N/A
UPOLU AIRPORT*   N/A    N/A N/A N/A NE16        N/A
KAMUELA*       CLOUDY    59  57  94 N17       30.06R
HAKALAU*         N/A     46  45  93 NW3         N/A
KALOKO-HONOKO*   N/A     70  66  88 E7        29.93
PALI 2*          N/A     61  52  72 N18G29      N/A
KEALAKOMO*       N/A     73  54  49 N30G39      N/A
KAUPULEHU*     NOT AVBL
KAPAPALA*        N/A     64  58  80 VRB6        N/A
LOWER KAHUKU*    N/A     57  54  88 VRB3G12     N/A
PUHE CS*         N/A     75  55  50 N5G15       N/A
PUHO CS*         N/A     69  32  25 E1          N/A
PTA KEAMUKU*     N/A     55  48  76 CALM        N/A
WAIKOLOA*      NOT AVBL
$$

HIZ027>028-050700-
BIG ISLAND OF HAWAII INTERIOR AND SUMMMITS-

CITY           SKY/WX    TMP DP  RH WIND       PRES   REMARKS
BRADSHAW FIELD LGT RAIN  48  46  93 SE5       30.22R
MK VISITOR CEN NOT AVBL
MAUNA KEA*       N/A     30  28  93 W23         N/A  WCI  17
MAUNA LOA*       N/A     37  36  93 MISG        N/A
MAUNA LOA 1*   NOT AVBL
PTA KIPUKA*      N/A     54  43  66 E15G23      N/A
PTA RANGE 17*    N/A     52  46  82 NE6G22      N/A
PTA WEST*        N/A     55  50  82 N2G14       N/A
NENE CABIN*      N/A     46  41  81 NE2         N/A
AHUMOA*        NOT AVBL
PTA PORTABLE*  NOT AVBL
PUU MALI*      NOT AVBL
$$

HIC003-050700-
NORTHWEST ISLANDS-

CITY           SKY/WX    TMP DP  RH WIND       PRES   REMARKS
MIDWAY ISLAND  PTCLDY    61  52  72 NE20G26   30.39R
MIDWAY NOS*    NOT AVBL
FRENCH FRIGATE NOT AVBL
$$

PHZ110>124-180-050700-
BUOY REPORTS

STATION/POSITION TIME  TEMP    WIND        PRES    WAVE   SWELL
                       AIR SEA DIR/SP/G            HT/PER HT/DIR
                 (UTC) (F)     (DEG/KT/KT) (MB)    (FT/S) (FT/D)
BUOY 51001       NOT AVBL
BUOY 51101       0600   67 71   10/ 21/ 25 1019.6R  12/ 9   7/340
BUOY 51100       0600   71 75   30/ 16/ 19 1014.5R
BUOY 51003       0600   76 78   70/ 17/ 21 1013.7F   9/ 8   5
BUOY 51004       0543   77 79   50/ 17/ 21 1011.8R   8/10   7/ 80
BARBERS PT BUOY  NOT AVBL
WAIMEA BAY BUOY  0600      77                N/A     8/ 8   3/ 20
KAILUA BAY BUOY  0600      77                N/A     8/10   3/ 70
LANAI BUOY       0600      76                N/A     3/15   2/230
BARBERS PT 2     0600      77                N/A     4/15   2/250
PAUWELA MAUI     0600      74                N/A     7/10   3/ 60
HILO             0600      77                N/A     7/10   3/ 50
KANEOHE BAY BUOY 0600      77                N/A     7/10   2/ 40
HANALEI KAUAI    NOT AVBL
KAHULUI HARBOR   0600   70 76  140/  4/  5 1014.8F
HONOLULU HARBOR  0600   70 76  110/  1/  5 1015.7R
KILO NALU        NOT AVBL
HILO HARBOR      0600   73 77  340/ 12/ 15 1014.9R
MOKUOLOE         0600   71 76   50/ 12/ 15 1015.6S
NAWILIWILI       0600   68 77  320/  6/  8 1016.6R
WHOTS BUOY       NOT AVBL
BUOY 51028       NOT AVBL
$$

......................KEY........................................
  SKY/WX - SKY CONDITIONS/PRESENT WEATHER
  TMP    - TEMPERATURE IN FAHRENHEIT
  DWPT   - DEWPOINT IN FAHRENHEIT
  RH     - RELATIVE HUMIDITY IN PERCENT
  WIND   - DIRECTION AND SPEED /MPH FOR ISLANDS...KTS FOR BUOYS/
  PRES   - MEAN SEA LEVEL PRESSURE IN INCHES OF HG
  VSB    - VISIBILITY IN MILES
  HX     - HEAT INDEX
  WCI    - WIND CHILL INDEX
  VRB    - VARIABLE WIND DIRECTION
  N/A    - NOT AVAILABLE



USA.gov is the U.S. government's official web portal to all federal, state and local government web resources and services.